Location: Glomel
(48.2230°N, 3.3970°W)
Time: 00:44:07
(UTC+00:00)

Daily predictions for brighter satellites

Satellite Brightness Start Highest point End
(mag) Time Altitude Azimuth Time Altitude Azimuth Time Altitude Azimuth
USA 215 4.0 03:59:28 10° ESE 04:03:57 47° E 04:03:57 47° E
CENTAUR R/B 4.2 04:16:24 29° N 04:18:04 31° NNE 04:25:17 10° E
Cosmos 2297 Rocket 3.6 04:23:30 33° ESE 04:23:30 33° ESE 04:26:39 10° SE
Cosmos 2227 Rocket 3.1 04:34:29 43° ESE 04:34:29 43° ESE 04:38:20 10° SE
COSMO-SKYMED 1 4.4 04:38:41 10° SE 04:41:17 28° ESE 04:41:17 28° ESE
Cosmos 1656 4.1 04:55:44 50° SSE 04:56:39 58° ESE 05:02:01 10° NE
NOSS 3-1 (C) 4.5 05:02:19 33° N 05:02:19 33° N 05:07:31 10° NE
CZ-3 R/B 4.2 04:56:39 21° SW 05:05:23 29° SSW 05:12:39 10° SE
Lacrosse 5 rocket 2.6 05:10:54 38° NNE 05:10:54 38° NNE 05:13:56 10° NE
Cosmos 1758 4.3 05:12:25 10° SSE 05:16:15 46° E 05:20:05 10° NNE
Meteor 2-15 Rocket 4.3 05:13:43 26° SSW 05:17:20 77° W 05:23:31 10° N
Meteor 1-24 Rocket 4.0 05:20:04 51° SSW 05:20:04 51° SSW 05:24:37 10° S
Cosmos 2184 Rocket 3.8 05:14:40 17° NNW 05:19:30 77° W 05:25:43 10° S
Cosmos 1602 Rocket 3.6 05:21:44 73° ESE 05:21:44 73° ESE 05:25:52 10° SSE
Cosmos 1953 4.1 05:20:59 10° SSE 05:24:36 32° E 05:28:15 10° NNE
Cosmos 44 Rocket 3.4 05:24:26 57° N 05:25:07 66° NE 05:29:50 10° SE
Cosmos 1980 Rocket 3.9 05:20:11 10° SSE 05:25:10 32° ESE 05:30:10 10° NE
Cosmos 2154 Rocket 4.0 05:20:51 10° N 05:27:06 81° E 05:33:17 10° SSE
SKYMED 2 3.7 05:26:13 10° S 05:29:51 61° S 05:29:51 61° S
Okean O Rocket 3.2 05:27:22 10° NNE 05:31:31 36° E 05:35:39 10° SSE
FENGYUN 3A 4.0 05:26:21 10° NNE 05:31:45 65° ESE 05:37:06 10° S
SJ-12 4.1 05:27:51 10° NNE 05:31:55 71° ESE 05:35:58 10° S
Cosmos 1697 Rocket 3.0 05:28:44 10° SSW 05:34:17 66° ESE 05:39:52 10° NNE
Meteor 1-22 Rocket 4.3 05:32:57 24° SSW 05:36:32 60° WNW 05:42:36 10° N
Cosmos 1758 Rocket 4.4 05:33:40 10° N 05:37:56 50° ENE 05:42:12 10° SSE
NOSS 3-1 (A) 4.3 05:37:25 32° NW 05:37:57 33° NNW 05:44:04 10° NE
NOSS 2-2 (E) 4.2 05:39:28 25° S 05:41:15 46° ESE 05:45:12 10° NE
PSLV R/B 4.4 05:38:24 10° N 05:41:08 43° N 05:41:08 43° N
ATLAS 3B R/B 3.7 05:38:09 18° NNW 05:42:30 38° NNE 05:48:48 10° E
Cosmos 1610 Rocket 4.4 05:38:55 10° NNW 05:45:09 73° W 05:51:26 10° S
Cosmos 1626 Rocket 4.5 05:47:01 33° SSW 05:47:01 33° SSW 05:49:38 10° SSW
NOSS 3-2 (A) 4.1 05:43:21 24° NW 05:48:20 81° NE 05:56:42 10° SE
Cosmos 1726 4.1 05:45:27 10° SSE 05:48:42 30° E 05:51:57 10° NNE
USA 215 3.7 05:43:09 10° SSE 05:49:17 43° SW 05:51:20 34° W
Cosmos 2082 3.7 05:49:00 38° NW 05:50:53 56° WSW 05:56:25 10° S
CZ-4B DEB 4.2 05:45:34 10° NNE 05:51:10 84° ESE 05:56:43 10° SSW
Cosmos 2074 Rocket 4.2 05:47:31 16° NNW 05:52:11 43° W 05:58:00 10° SSW
Cosmos 783 Rocket 4.5 05:50:45 27° SW 05:53:30 59° WNW 05:58:40 10° NNE
CZ-2C R/B 4.3 05:49:51 10° N 05:51:00 16° NNW 05:51:00 16° NNW
STARLINK-60 4.1 05:54:11 34° N 05:54:11 34° N 05:57:07 10° ENE
FALCON 9 DEB 4.0 05:54:43 37° N 05:54:43 37° N 05:57:53 10° ENE
USA 116 4.0 05:52:55 10° S 05:57:51 71° WSW 06:01:02 19° NNW
Helios 1A Rocket 3.8 05:54:32 10° NNE 05:58:34 51° E 06:02:35 10° S
Cosmos 1470 2.8 05:54:52 10° SSW 05:58:47 56° WNW 06:02:44 10° N
NOSS 8 (F) 4.0 05:59:17 76° NNW 05:59:17 76° NNW 06:02:16 10° NE
Cosmos 1295 Rocket 4.4 05:53:54 10° NNW 06:00:10 78° W 06:06:18 10° S
STARLINK-29 3.9 06:03:50 37° NNW 06:04:05 37° N 06:07:25 10° ENE
STARLINK-52 3.9 06:03:58 37° NNW 06:04:11 38° N 06:07:31 10° ENE
Cosmos 2344 3.5 05:56:57 10° SW 06:04:27 84° NW 06:12:51 10° NE
Cosmos 2297 Rocket 3.3 06:05:22 25° WSW 06:05:22 25° WSW 06:09:15 10° SSW
Cosmos 1825 Rocket 3.5 06:00:42 10° N 06:05:02 82° ENE 06:09:23 10° S
APEX 4.3 06:06:27 28° NNW 06:06:27 28° NNW 06:09:26 10° NNE
BREEZE M DEB (TANK) 4.1 06:04:25 17° SSW 06:06:03 34° SE 06:10:32 10° ENE
Cosmos 962 Rocket 4.4 06:01:13 10° N 06:07:29 82° W 06:13:48 10° S
CENTAUR R/B 3.4 06:03:35 16° NW 06:10:14 67° NE 06:18:52 10° SE
ALOS 2.3 06:07:56 10° N 06:12:29 52° WNW 06:17:01 10° SSW
Cosmos 2360 4.2 06:07:12 10° SSW 06:12:56 87° ESE 06:18:43 10° NNE
ATLAS 2AS CENTAUR R/B 4.1 06:07:34 10° S 06:15:04 48° ESE 06:22:39 10° NE
Cosmos 773 Rocket 4.0 06:10:57 10° SW 06:16:12 63° WNW 06:21:29 10° NNE
Cosmos 2227 Rocket 3.3 06:16:21 23° WSW 06:16:21 23° WSW 06:20:34 10° SSW
COSMO-SKYMED 1 3.6 06:15:14 10° SSW 06:18:31 26° WSW 06:18:31 26° WSW
STARLINK-46 3.5 06:20:17 27° S 06:20:17 27° S 06:21:39 10° SSE
COSMOS 2455 3.3 06:14:02 10° SSW 06:19:58 65° ESE 06:25:57 10° NE
USA 238 DEB 3.9 06:17:22 18° NW 06:22:55 67° SW 06:30:15 10° SSE
ADEOS Rocket 2.7 06:17:28 10° SSE 06:22:58 89° ENE 06:28:36 10° NNW
Cosmos 972 Rocket 4.4 06:16:27 10° NNW 06:23:01 76° WSW 06:28:48 10° S
USA 238 3.9 06:17:28 18° NW 06:23:01 67° SW 06:30:21 10° SSE
Cosmos 2181 Rocket 4.1 06:19:04 10° S 06:25:15 82° E 06:31:34 10° N
Cosmos 1606 Rocket 3.5 06:20:52 10° S 06:25:19 89° W 06:29:48 10° N
Cosmos 2263 Rocket 2.5 06:21:17 10° NNW 06:26:55 67° ENE 06:32:34 10° SE
Cosmos 2341 Rocket 4.0 06:20:46 10° NNW 06:27:00 65° W 06:33:08 10° S
SL-4 R/B 1.5 06:26:59 30° WNW 06:28:36 75° SSW 06:32:02 10° ESE
Cosmos 1726 Rocket 3.7 06:24:13 10° S 06:28:40 81° E 06:33:08 10° NNE
STARLINK-43 3.5 06:28:41 27° W 06:30:27 55° NNW 06:34:07 10° ENE
Cosmos 2278 3.7 06:27:41 10° SW 06:33:21 63° WNW 06:39:03 10° NNE
STARLINK-48 3.5 06:30:57 14° WSW 06:34:11 83° SSE 06:38:05 10° ENE
USA 32 4.0 06:29:19 10° NNW 06:34:30 64° W 06:39:40 10° S
NOSS 7 (D) 4.1 06:34:30 26° NW 06:36:02 67° SW 06:39:20 10° SSE
SL-8 Rocket 3.9 06:32:06 10° NNW 06:38:19 72° W 06:44:27 10° S
Abrixas rocket 1.9 06:37:05 26° W 06:38:36 86° SSW 06:41:39 10° E
STARLINK-80 3.3 06:36:22 18° WSW 06:39:08 73° NNW 06:42:56 10° ENE
CZ-4 R/B 4.3 06:35:57 10° NE 06:39:12 21° E 06:42:26 10° SE
Cosmos 1656 4.5 06:37:14 16° W 06:40:39 28° NW 06:45:22 10° NNE
Cosmos 2369 4.0 06:35:32 10° SW 06:40:59 44° NW 06:46:28 10° NNE
CZ-2C R/B 4.2 06:36:43 10° SSE 06:41:16 61° ENE 06:45:47 10° N
Cosmos 1844 Rocket 4.5 06:36:59 10° N 06:41:39 26° NE 06:46:18 10° ESE
NOSS 2-2 (D) 3.2 06:38:08 10° SW 06:41:45 62° NW 06:45:57 10° NE
Cosmos 1538 Rocket 4.2 06:39:29 10° SW 06:44:42 51° WNW 06:49:54 10° NNE
SL-16 R/B 3.5 06:42:51 10° S 06:48:12 45° ESE 06:53:35 10° NE
EXPRESS MD2 2.1 06:47:14 17° W 06:49:17 73° NNW 06:51:28 10° ENE
Lacrosse 5 rocket 2.7 06:46:33 16° WNW 06:49:22 28° N 06:53:15 10° NE
H-2A R/B 2.7 06:46:15 10° N 06:50:10 71° WNW 06:54:04 10° SSW
Meteor 1-11 4.2 06:47:15 10° NNW 06:52:51 83° W 06:58:28 10° S
Meteor 1-16 Rocket 4.3 06:48:01 10° SSW 06:53:54 65° WNW 06:59:47 10° N
CZ-4B R/B 3.4 06:48:50 10° N 06:54:13 48° WNW 06:59:29 10° SW
BREEZE-M DEB (TANK) 3.7 06:54:54 11° W 06:58:44 83° N 07:13:22 10° E
Okean-O 3.4 06:56:28 10° NNE 07:00:52 58° E 07:05:15 10° S
Cosmos 1953 3.4 06:57:45 10° SW 07:01:03 24° WNW 07:04:24 10° NNW
YAOGAN 6 3.3 06:57:35 10° NNE 07:01:08 56° E 07:04:36 10° S
Cosmos 1703 3.6 06:59:01 10° NNW 07:02:49 44° W 07:06:33 10° SSW
Cosmos 2218 Rocket 4.2 06:57:59 10° NNW 07:04:13 56° W 07:10:24 10° SSW
Cosmos 1908 3.3 07:01:16 10° SSW 07:05:08 60° WNW 07:09:02 10° N
Cosmos 2228 3.5 07:03:02 10° SW 07:07:09 38° WNW 07:11:17 10° N
Okean O Rocket 2.5 07:03:58 10° N 07:07:45 28° WNW 07:11:31 10° WSW
SAR-Lupe-2 4.0 07:04:47 10° SSE 07:08:19 63° ENE 07:11:53 10° N
Cosmos 1980 Rocket 2.5 07:03:31 10° SW 07:08:59 47° NW 07:14:30 10° NNE
Cosmos 1821 Rocket 4.4 07:03:35 10° N 07:09:48 68° ENE 07:15:54 10° SSE
Timation 1 Rocket 4.5 07:03:55 10° NW 07:09:50 60° WSW 07:15:43 10° S
Cosmos 1953 Rocket 4.3 07:06:07 10° NNW 07:10:05 32° W 07:14:00 10° SSW
Cosmos 1300 3.7 07:06:44 10° S 07:10:26 50° E 07:14:10 10° NNE
Starlink (trailer) 4.5 07:09:47 10° SW 07:13:41 51° SE 07:17:36 10° ENE
SMAP 3.2 07:09:29 10° N 07:14:03 54° WNW 07:18:34 10° SSW
STARLINK-61 3.7 07:10:46 10° SW 07:14:43 75° SSE 07:18:41 10° ENE
NOSS 3-2 (C) 4.3 07:07:48 10° NW 07:15:08 56° WSW 07:23:16 10° SSE
STARLINK-38 4.4 07:11:25 10° SW 07:15:20 52° SE 07:19:16 10° ENE
STARLINK-33 4.1 07:12:36 10° SW 07:16:12 54° SSE 07:19:50 10° ENE
STARLINK-65 4.4 07:13:03 10° SW 07:16:58 53° SE 07:20:55 10° ENE
Envisat 3.0 07:12:07 10° NNE 07:17:15 86° WNW 07:22:20 10° SSW
STARLINK-53 4.3 07:14:45 10° SW 07:18:42 57° SSE 07:22:39 10° ENE
Cosmos 1697 Rocket 3.6 07:14:03 10° WSW 07:18:44 26° NW 07:23:27 10° N
Cosmos 1680 Rocket 3.5 07:14:03 10° SSW 07:19:22 71° WNW 07:24:42 10° NNE
NOSS 2-2 (C) 4.1 07:17:10 10° W 07:20:34 32° NW 07:24:32 10° NNE
Cosmos 1371 Rocket 4.1 07:15:37 10° NNW 07:20:52 70° WSW 07:26:09 10° SSE
STARLINK-66 3.9 07:17:57 10° SW 07:21:34 60° SSE 07:25:12 10° ENE
Cosmos 1812 Rocket 4.3 07:18:28 10° S 07:22:44 57° E 07:27:03 10° NNE
Cosmos 1726 3.4 07:21:07 10° WSW 07:23:58 21° WNW 07:26:50 10° NNW
STARLINK-26 3.2 07:21:12 10° WSW 07:24:44 74° NNW 07:28:16 10° ENE
Cosmos 2058 3.8 07:20:56 10° N 07:25:04 54° ENE 07:29:11 10° SSE
CZ-2C R/B 3.3 07:22:02 10° SSE 07:27:09 58° ENE 07:32:24 10° N
